COSMOS 1275 DEB, 12705

Orbit data source: Space-Track

COSMOS 1275 DEB, 12705 is space debris in LEO originally from a launch on Thu, 04 Jun 1981 UTC launched from the Plesetsk Missile And Space Complex (PKMTR). Debris objects in space refer to the collection of defunct objects orbiting the Earth. Examples of debris include non-operational satellites, rocket bodies, and fragments generated from explosions, collisions, or faulty payload assembly.

Loading next visibility...
Identifier
12705, 1981-053AZ
Orbit
LEO
Country
Flag of CISCIS
Related business
Manufacturer
Unknown
Mission
Spacecraft
Bus & Motor
Unknown
Mass
Unknown
Launch date (UTC)
1981-06-04 (45 years ago)
Launch vehicle
Unknown
Launch site
Plesetsk Missile And Space Complex (PKMTR)
Object type
Payload
Rocket body
Debris
Shape & HBR
Unknown shape, 0.3 m
Radar Cross Section
Medium (>0.1 m² and <1 m²)

Expand to show TLE details & history
Last TLE update: 11 hours ago

TLE from 11 hours ago
0 COSMOS 1275 DEB
1 12705U 81053AZ  26124.15092372  .00001192  00000-0  72775-3 0  9990
2 12705  82.8852 260.1188 0024813 332.5432 200.8316 14.05099797267855
Epoch: 2026-05-04T03:37Z
TLE epoch observation values (Epoch: 2026-05-04T03:37:19.809Z)
Latitude
6.59824°
Longitude
162.91909°
Altitude
895.348 km
Speed
7.396 km/s
True Right ascension
05h 17m 11s
True Declination
6° 33' 35"
Sunlit
Object was in daylight at epoch
Visualization orbit readout
Latitude
Unknown
Longitude
Unknown
Altitude
Unknown
Speed
Unknown
Apparent Right ascension
Unknown
Apparent Declination
Unknown
Sunlit
N/A
Visualization observer readout
Local Sidereal Time
22:30:27
Azimuth
Unknown
Elevation
Unknown
Doppler factor
Unknown
Orbital elements
Apogee altitude
891.291 km
Perigee altitude
855.305 km
Semi-major axis
7,251.435 km
Eccentricity
0.00248
Inclination
82.8852°
RAAN
260.1188°
Arg. of periapsis
332.5432°
True anomaly
200.73078°
Mean anomaly
200.8316°
Eccentric anomaly
200.78116°
Mean motion
3.51485 °/min
Orbital period
102.42 mins
BSTAR
0.00072775
Loading maneuver chart data...
Computing Atmospheric mass density...
Loading historical data...
Loading historical data...
Loading historical data...
Loading historical data...
Loading historical data...
Loading historical data...
Loading historical data...

Documentation

Showing up to 5 results
|